sat.trackr.live / text

‹ back to catalog

KUIPER-00041

NORAD 64502 · 2025-134C

PAYLOAD ACTIVE UNKNOWN

§ Identity

Operator
Country
US
Launch date
2025-06-23
Launch site
AFETR
Launch vehicle
Mass (kg)
RCS (m²)

External: N2YO · Heavens-Above · Gunter

§ Orbital elements

Epoch: 2026-09-21T22:13:29.037792Z

Period
97.30 min
Inclination
51.8999°
Eccentricity
0.0000830
Mean motion
14.79930559 rev/d
Perigee alt
629.0 km
Apogee alt
630.1 km
Semi-major
7,007.7 km
B*
-1.5138e-5
RAAN
97.8120°
Arg perigee
111.1317°
Mean anomaly
248.9734°
Rev number
6,895

§ Raw data

KUIPER-000411 64502U 25134C   26264.92603053 -.00000337  00000+0 -15138-4 0  99962 64502  51.8999  97.8120 0000830 111.1317 248.9734 14.79930559 68950

JSON: /api/v1/satellites/64502 · /tle

For live sub-satellite position, see the globe view (requires WebGL).

§ Visibility from observer

Set your observer location to see the next 7 days of passes ≥ 10°. The values pass through the URL so the page stays shareable.

No JS? Fill the form by hand. The geolocation button needs JavaScript.